Stations météo

réclame
Mon MeteoGroup
Lüdenscheid, Allemagne (10418): Température de l'air & dewpoint: 18.05.2019 03:00:00 - 24.05.2019 03:00:00 (CEST)Lüdenscheid, Allemagne (10418): Température de l'air 5cm & Température de l'air -5cm: 18.05.2019 03:00:00 - 24.05.2019 03:00:00 (CEST)Lüdenscheid, Allemagne (10418): Température de l'air -20cm & Température de l'air -100cm: 18.05.2019 03:00:00 - 24.05.2019 03:00:00 (CEST)Lüdenscheid, Allemagne (10418): Vitesse du vent & gusts: 18.05.2019 03:00:00 - 24.05.2019 03:00:00 (CEST)Lüdenscheid, Allemagne (10418): Direction du vent: 18.05.2019 03:00:00 - 24.05.2019 03:00:00 (CEST)Lüdenscheid, Allemagne (10418): reduced air pressure: 18.05.2019 03:00:00 - 24.05.2019 03:00:00 (CEST)Lüdenscheid, Allemagne (10418): visibility: 18.05.2019 03:00:00 - 24.05.2019 03:00:00 (CEST)Lüdenscheid, Allemagne (10418): Ensoleillement: 18.05.2019 03:00:00 - 24.05.2019 03:00:00 (CEST)Lüdenscheid, Allemagne (10418): Quantités de précipitations: 18.05.2019 03:00:00 - 24.05.2019 03:00:00 (CEST)
Date & Time tt [°C] td [°C] tt 5cm [°C] tt -5cm [°C] tt -20cm [°C] tt -100cm [°C] ff [km/h] ff [knt] fx [km/h] fx [knt] dd ppp [hPa] vv [km] sd [min] rr [mm]
24.05.2019 03:00:00 9,4 5,1 6,0 12,7 15,2 11,0 3 1 6 3 E 1016,8 51 0 0,0
24.05.2019 02:00:00 10,1 3,9 7,0 13,4 15,5 11,0 0 0 7 4 N 1017,2 47 0 0,0
24.05.2019 01:00:00 11,0 3,8 8,8 14,3 15,9 11,0 5 3 5 3 WNW 1017,4 51 0 0,0
24.05.2019 00:00:00 12,5 4,9 9,7 15,2 16,2 11,0 4 2 13 7 SW 1017,2 59 0 0,0
23.05.2019 23:00:00 12,3 6,8 10,5 16,4 16,4 11,0 5 3 8 4 WSW 1017,3 35 0 0,0
23.05.2019 22:00:00 15,1 6,0 11,2 17,9 16,6 11,0 4 2 5 3 NW 1016,6 57 0 0,0
23.05.2019 21:00:00 16,6 6,2 13,6 19,3 16,6 11,0 3 2 10 5 WNW 1016,2 64 35 0,0
23.05.2019 20:00:00 17,1 5,5 16,0 20,7 16,4 11,0 10 5 23 12 WNW 1016,4 13 35 0,0
23.05.2019 19:00:00 18,2 6,5 18,8 22,2 16,2 11,0 10 5 27 15 W 1016,1 56 47 0,0
23.05.2019 18:00:00 19,3 7,8 22,5 22,6 15,8 10,9 12 6 25 13 W 1016,2 52 29 0,0
23.05.2019 17:00:00 18,4 6,7 21,5 23,2 15,3 10,9 13 7 25 14 WSW 1016,8 34 45 0,0
23.05.2019 16:00:00 18,7 6,8 21,9 22,9 14,7 10,9 12 6 23 12 WSW 1017,0 60 40 0,0
23.05.2019 15:00:00 17,8 5,5 21,4 22,8 14,1 10,9 16 9 24 13 W 1017,5 52 52 0,0
23.05.2019 14:00:00 17,8 6,4 21,7 21,8 13,4 10,9 10 5 27 15 W 1017,9 38 32 0,0
23.05.2019 13:00:00 16,8 6,4 20,3 21,2 12,7 10,9 14 7 27 15 W 1018,4 31 46 0,0
23.05.2019 12:00:00 16,7 5,9 20,6 19,2 12,2 10,9 16 9 29 16 W 1018,8 42 54 0,0
23.05.2019 11:00:00 16,4 7,1 19,4 16,9 11,7 10,9 11 6 22 12 W 1019,0 31 60 0,0
23.05.2019 10:00:00 14,9 8,4 16,8 14,0 11,5 10,9 11 6 18 10 WSW 1019,4 16 60 0,0
23.05.2019 09:00:00 12,8 9,1 11,8 11,4 11,6 10,9 2 1 5 3 S 1019,6 2,3 60 0,0
23.05.2019 08:00:00 8,8 7,3 8,7 9,3 11,8 11,0 2 1 3 1 E 1020,0 8 55 0,0
23.05.2019 07:00:00 6,9 6,3 5,2 8,8 12,0 11,0 0 0 4 2 N 1020,2 0,3 0 0,0
23.05.2019 06:00:00 5,5 5,4 3,6 8,9 12,3 11,0 3 1 6 3 E 1020,5 0,2 0 0,0
23.05.2019 05:00:00 5,8 5,6 3,4 9,4 12,6 11,0 5 3 5 3 E 1020,6 1,6 0 0,0
23.05.2019 04:00:00 6,9 6,6 4,6 10,0 12,9 11,0 0 0 4 2 N 1020,7 7 0 0,0
23.05.2019 03:00:00 7,3 6,7 4,9 10,6 13,2 11,0 4 2 4 2 ENE 1020,7 8 0 0,0
23.05.2019 02:00:00 7,5 6,8 5,4 11,2 13,5 11,0 3 1 4 2 SE 1020,9 12 0 0,0
23.05.2019 01:00:00 8,8 7,0 6,7 11,8 13,8 11,0 0 0 7 4 SW 1020,6 20 0 0,0
23.05.2019 00:00:00 8,6 6,5 6,9 12,5 14,1 11,0 5 3 6 3 W 1020,7 20 0 0,0
22.05.2019 23:00:00 9,6 6,4 6,6 13,4 14,3 11,0 5 3 6 3 WNW 1020,2 27 0 0,0
22.05.2019 22:00:00 10,8 6,6 7,6 14,6 14,4 11,0 5 3 6 4 W 1019,9 38 0 0,0
22.05.2019 21:00:00 12,7 6,5 10,1 16,0 14,4 11,0 5 3 13 7 WNW 1019,4 42 7 0,0
22.05.2019 20:00:00 14,2 6,4 13,7 17,3 14,3 11,0 9 5 18 10 W 1019,0 49 35 0,0
22.05.2019 19:00:00 14,2 6,2 14,1 18,5 14,1 11,0 12 6 22 12 WNW 1019,0 40 16 0,0
22.05.2019 18:00:00 15,3 6,4 17,6 19,3 13,8 11,0 13 7 27 15 W 1019,0 47 49 0,0
22.05.2019 17:00:00 14,3 6,4 16,0 19,4 13,3 11,0 7 4 27 14 WNW 1019,3 46 16 0,0
22.05.2019 16:00:00 14,4 6,7 18,8 20,1 12,7 11,0 11 6 23 13 WNW 1019,4 38 35 0,0
22.05.2019 15:00:00 14,0 8,3 18,5 19,8 12,1 10,9 13 7 27 15 W 1019,6 34 42 0,0
22.05.2019 14:00:00 12,6 7,0 15,2 17,4 11,6 10,9 11 6 27 15 WNW 1019,7 33 36 0,0
22.05.2019 13:00:00 11,8 7,5 14,8 15,0 11,4 10,9 11 6 22 12 W 1019,7 21 23 0,0
22.05.2019 12:00:00 9,4 5,8 11,1 12,3 11,3 10,9 13 7 25 14 WNW 1020,0 13 1 0,0
22.05.2019 11:00:00 8,5 7,4 9,3 10,8 11,3 11,0 10 6 25 13 W 1019,8 16 0 0,0
22.05.2019 10:00:00 8,0 6,9 8,3 10,5 11,3 10,9 13 7 29 16 W 1019,6 14 0 0,0
22.05.2019 09:00:00 7,8 7,2 8,0 10,3 11,4 10,9 14 7 27 15 WNW 1019,2 3,6 0 0,1
22.05.2019 08:00:00 8,0 7,5 8,1 10,3 11,5 10,9 13 7 26 14 WNW 1018,8 3,5 0 0,0
22.05.2019 07:00:00 8,2 7,6 8,2 10,4 11,6 10,9 16 9 32 17 W 1018,3 7 0 0,2
22.05.2019 06:00:00 9,0 8,8 9,1 10,6 11,6 10,9 14 8 29 16 W 1017,6 2,2 0 0,2
22.05.2019 05:00:00 9,2 9,1 9,3 10,6 11,7 10,9 15 8 23 13 W 1017,2 0,9 0 0,1
22.05.2019 04:00:00 9,3 9,3 9,4 10,7 11,8 10,9 14 8 26 14 W 1017,1 0,8 0 0,2
22.05.2019 03:00:00 9,4 9,4 9,4 10,8 11,8 10,9 12 7 24 13 W 1016,9 0,7 0 0,1
22.05.2019 02:00:00 9,4 9,4 9,5 10,9 11,9 10,9 13 7 34 19 W 1016,7 0,2 0 0,2
22.05.2019 01:00:00 9,6 9,4 9,6 11,0 12,0 10,9 16 8 30 16 W 1016,6 2,0 0 0,1
22.05.2019 00:00:00 9,7 9,6 9,7 11,2 12,1 10,9 18 10 31 17 W 1016,5 1,4 0 0,1
21.05.2019 23:00:00 9,8 9,7 9,9 11,3 12,1 10,9 16 8 26 14 W 1016,3 0,7 0 0,0
21.05.2019 22:00:00 9,9 9,8 9,9 11,4 12,2 10,9 16 8 35 19 W 1016,0 0,6 0 0,0
21.05.2019 21:00:00 10,0 10,0 10,1 11,7 12,3 10,9 18 10 36 19 W 1015,4 0,8 0 0,0
21.05.2019 20:00:00 10,2 10,1 10,3 11,9 12,3 10,9 21 11 34 18 W 1014,9 0,9 0 0,0
21.05.2019 19:00:00 10,5 10,4 10,7 12,1 12,3 10,9 19 10 30 16 W 1014,5 0,7 0 0,0
21.05.2019 18:00:00 10,6 10,5 10,8 12,2 12,3 10,9 19 11 33 18 W 1014,2 0,7 0 0,0
21.05.2019 17:00:00 10,8 10,5 11,0 12,3 12,3 10,9 17 9 34 18 WNW 1014,1 3,1 0 0,1
21.05.2019 16:00:00 10,9 10,4 11,1 12,5 12,3 10,9 16 9 35 19 WNW 1013,5 4,2 0 0,4
21.05.2019 15:00:00 10,8 10,5 11,2 12,6 12,3 10,9 18 10 33 18 WNW 1012,9 4,5 0 0,5
21.05.2019 14:00:00 10,7 10,6 11,1 12,5 12,3 10,9 20 11 39 21 W 1012,3 0,4 0 0,1
21.05.2019 13:00:00 10,7 10,5 11,1 12,5 12,3 10,8 15 8 34 18 W 1011,6 0,4 0 0,0
21.05.2019 12:00:00 10,7 10,6 11,1 12,3 12,3 10,8 17 9 38 21 WNW 1010,9 1,0 0 0,0
21.05.2019 11:00:00 10,6 10,5 11,2 12,1 12,3 10,8 18 10 32 18 W 1010,8 0,9 0 1,0
21.05.2019 10:00:00 10,9 10,7 11,1 12,1 12,3 10,8 15 8 38 20 WNW 1010,1 3,6 0 4,0
21.05.2019 09:00:00 11,1 10,8 11,2 11,9 12,4 10,8 16 9 34 19 W 1009,2 6 0 3,0
21.05.2019 08:00:00 11,1 10,9 11,1 11,8 12,5 10,8 15 8 32 17 W 1008,7 10 0 5,5
21.05.2019 07:00:00 11,0 10,8 11,0 11,9 12,6 10,8 11 6 31 17 NW 1008,3 6 0 4,5
21.05.2019 06:00:00 10,9 10,9 10,9 11,9 12,7 10,8 17 9 40 22 WNW 1008,1 0,3 0 1,2
21.05.2019 05:00:00 10,8 10,8 10,9 12,1 12,8 10,8 20 11 45 24 W 1007,9 0,5 0 0,3
21.05.2019 04:00:00 11,0 10,9 11,0 12,3 12,8 10,8 22 12 39 21 W 1007,3 0,7 0 0,3
21.05.2019 03:00:00 11,4 11,0 11,3 12,5 12,9 10,8 25 14 36 19 W 1007,4 1,6 0 0,2
21.05.2019 02:00:00 11,9 11,1 11,7 12,6 13,0 10,7 17 9 33 18 WNW 1007,6 3,6 0 0,0
21.05.2019 01:00:00 12,2 11,6 11,9 12,8 13,0 10,7 11 6 29 16 WNW 1007,9 3,0 0 0,0
21.05.2019 00:00:00 12,2 11,5 12,2 12,9 13,1 10,7 19 11 36 19 W 1007,8 2,8 0 0,0
20.05.2019 23:00:00 12,5 11,5 12,4 13,1 13,1 10,7 23 12 41 22 W 1007,7 3,0 0 0,0
20.05.2019 22:00:00 12,6 11,6 12,5 13,3 13,2 10,7 17 9 30 16 W 1007,5 2,7 0 0,0
20.05.2019 21:00:00 12,8 11,6 12,7 13,5 13,2 10,7 17 9 29 16 W 1007,6 3,0 0 0,0
20.05.2019 20:00:00 12,9 11,7 12,8 13,7 13,2 10,7 16 9 34 18 W 1007,4 3,5 0 0,0
20.05.2019 19:00:00 13,0 11,6 13,2 14,1 13,2 10,7 18 10 26 14 W 1006,9 3,9 0 0,0
20.05.2019 18:00:00 12,8 11,4 13,1 14,3 13,1 10,7 16 9 29 16 W 1006,9 3,4 0 0,0
20.05.2019 17:00:00 13,1 11,7 13,5 14,4 13,0 10,7 11 6 25 14 W 1007,1 3,5 0 0,0
20.05.2019 16:00:00 13,1 11,8 13,6 14,4 12,9 10,7 14 8 24 13 W 1007,1 4,0 0 0,0
20.05.2019 15:00:00 12,8 11,6 13,3 14,3 12,8 10,7 11 6 23 13 WNW 1007,0 3,6 0 0,0
20.05.2019 14:00:00 12,3 11,6 13,1 14,1 12,7 10,7 15 8 26 14 WNW 1007,2 2,3 0 0,0
20.05.2019 13:00:00 12,1 11,6 12,9 13,6 12,6 10,7 13 7 22 12 W 1006,9 1,6 0 0,0
20.05.2019 12:00:00 11,8 11,4 12,3 13,3 12,5 10,6 13 7 27 15 WNW 1007,0 2,2 0 0,0
20.05.2019 11:00:00 11,8 11,6 12,5 13,0 12,5 10,6 13 7 22 12 W 1006,7 1,0 0 0,0
20.05.2019 10:00:00 11,3 11,2 12,1 12,3 12,5 10,6 10 5 20 11 W 1006,5 1,4 0 0,0
20.05.2019 09:00:00 10,7 10,7 11,2 11,7 12,6 10,6 8 5 21 11 W 1006,5 0,3 0 0,0
20.05.2019 08:00:00 10,2 10,2 10,5 11,3 12,7 10,6 8 4 15 8 WNW 1006,3 0,2 0 0,0
20.05.2019 07:00:00 9,7 9,7 9,9 10,8 12,9 10,6 7 4 13 7 W 1006,2 0,1 0 0,0
20.05.2019 06:00:00 9,0 9,0 8,9 10,4 13,1 10,6 8 4 10 6 W 1006,0 1,2 0 0,0
20.05.2019 05:00:00 7,2 7,0 6,7 10,7 13,4 10,6 10 5 11 6 W 1006,0 0,3 0 0,0
20.05.2019 04:00:00 8,6 8,3 7,1 11,1 13,7 10,6 3 2 9 5 NNW 1005,9 2,2 0 0,0
20.05.2019 03:00:00 9,0 8,7 7,4 11,5 14,0 10,6 4 2 8 5 WNW 1005,7 3,0 0 0,0
20.05.2019 02:00:00 9,6 9,2 8,4 12,1 14,2 10,6 5 3 8 5 W 1005,8 8 0 0,0
20.05.2019 01:00:00 9,9 9,2 8,5 12,7 14,5 10,6 5 3 10 5 W 1006,1 11 0 0,0
20.05.2019 00:00:00 11,1 9,7 8,6 13,5 14,7 10,6 4 2 9 5 WNW 1006,1 32 0 0,0
19.05.2019 23:00:00 11,0 10,7 9,9 14,4 14,9 10,6 7 4 10 6 WSW 1006,3 0,7 0 0,0
19.05.2019 22:00:00 12,4 12,3 11,9 15,3 14,9 10,5 6 4 10 5 W 1005,8 14 0 0,0
19.05.2019 21:00:00 13,1 11,9 12,5 16,3 14,9 10,5 4 2 6 3 W 1005,0 39 5 0,0
19.05.2019 20:00:00 14,9 12,0 17,2 17,3 14,8 10,5 3 1 8 4 ENE 1004,0 54 48 0,0
19.05.2019 19:00:00 15,6 12,6 17,8 17,5 14,8 10,5 4 2 9 5 E 1003,7 50 39 0,0
19.05.2019 18:00:00 14,9 12,0 15,4 16,5 14,8 10,5 4 2 10 6 WSW 1004,5 47 5 0,0
19.05.2019 17:00:00 12,7 11,6 13,4 15,7 15,0 10,5 7 4 10 5 W 1005,7 33 0 0,6
19.05.2019 16:00:00 11,6 11,2 12,6 15,1 15,3 10,5 6 4 16 9 E 1006,6 16 0 3,9
19.05.2019 15:00:00 10,2 9,7 10,2 14,7 15,3 10,5 5 3 42 23 WSW 1007,0 4,2 0 18,0
19.05.2019 14:00:00 17,1 12,2 16,2 21,2 14,0 10,5 3 2 18 10 NW 1004,3 21 8 0,3
19.05.2019 13:00:00 19,6 10,3 25,8 21,6 13,4 10,5 9 5 18 10 E 1003,7 44 51 0,0
19.05.2019 12:00:00 19,1 10,5 23,8 19,1 12,9 10,5 6 4 13 7 NE 1004,1 39 37 0,0
19.05.2019 11:00:00 17,4 10,5 19,7 17,5 12,6 10,5 6 3 14 7 E 1004,6 51 37 0,0
19.05.2019 10:00:00 16,4 10,8 19,1 15,0 12,4 10,5 6 4 10 5 E 1004,7 52 50 0,0
19.05.2019 09:00:00 14,2 11,1 14,2 13,3 12,4 10,5 5 3 9 5 E 1005,2 20 50 0,0
19.05.2019 08:00:00 13,0 10,9 11,7 11,3 12,5 10,5 0 0 8 4 N 1005,3 10 30 0,0
19.05.2019 07:00:00 7,8 7,6 8,1 10,7 12,7 10,5 5 3 7 4 E 1006,1 0,2 0 0,0
19.05.2019 06:00:00 8,8 8,8 7,0 10,8 13,0 10,5 3 2 4 2 E 1005,9 0,2 0 0,0
19.05.2019 05:00:00 9,5 9,3 7,0 11,3 13,2 10,5 3 2 5 3 E 1005,9 2,4 0 0,0
19.05.2019 04:00:00 10,0 9,5 7,9 11,7 13,4 10,5 0 0 5 3 N 1006,2 9 0 0,0
19.05.2019 03:00:00 10,0 9,2 8,7 12,2 13,6 10,5 4 2 5 3 WNW 1006,4 14 0 0,0
19.05.2019 02:00:00 10,6 9,6 9,2 12,8 13,9 10,5 5 3 9 5 W 1006,6 12 0 0,0
19.05.2019 01:00:00 11,7 10,0 10,5 13,3 14,1 10,5 6 3 9 5 WNW 1006,7 27 0 0,0
19.05.2019 00:00:00 12,5 9,6 10,2 14,0 14,2 10,5 3 2 6 4 NNE 1006,7 39 0 0,0
18.05.2019 23:00:00 12,8 10,3 10,9 15,0 14,4 10,5 0 0 13 7 N 1006,8 41 0 0,0
18.05.2019 22:00:00 13,3 10,7 12,7 15,8 14,4 10,5 8 4 14 7 W 1006,5 49 0 0,0
18.05.2019 21:00:00 14,2 12,0 13,8 16,6 14,4 10,5 3 2 4 2 E 1005,9 38 18 0,0
18.05.2019 20:00:00 14,5 11,2 16,0 17,1 14,4 10,5 3 1 5 3 E 1005,6 47 16 0,0
18.05.2019 19:00:00 14,6 11,3 15,0 17,7 14,3 10,5 4 2 19 10 ENE 1005,7 40 1 0,0
18.05.2019 18:00:00 14,8 9,8 13,6 19,1 13,9 10,4 7 4 26 14 NNW 1005,8 53 0 0,6
18.05.2019 17:00:00 18,9 9,5 22,5 21,0 13,5 10,4 10 5 21 12 ENE 1004,7 68 45 0,0
18.05.2019 16:00:00 19,2 8,4 22,4 18,8 13,1 10,4 6 4 11 6 WSW 1004,7 46 5 0,0
18.05.2019 15:00:00 18,0 6,8 19,4 18,8 12,7 10,4 4 2 8 5 WSW 1005,2 61 0 0,0
18.05.2019 14:00:00 18,4 6,4 21,5 18,0 12,2 10,4 2 1 7 4 ESE 1005,3 51 5 0,0
18.05.2019 13:00:00 17,5 8,1 18,4 17,7 11,7 10,4 4 2 10 6 WNW 1005,5 52 2 0,0
18.05.2019 12:00:00 18,4 7,0 21,7 17,2 11,2 10,4 4 2 11 6 SE 1005,3 58 26 0,0
18.05.2019 11:00:00 16,1 9,3 18,4 14,6 10,9 10,4 4 2 8 4 E 1005,6 45 0 0,0
18.05.2019 10:00:00 14,4 9,4 16,2 13,0 10,7 10,4 5 3 9 5 E 1005,8 65 30 0,0
18.05.2019 09:00:00 11,7 9,8 13,0 10,7 10,7 10,4 4 2 6 4 E 1006,2 22 2 0,0
18.05.2019 08:00:00 9,6 8,2 9,4 9,5 10,8 10,4 2 1 6 4 ENE 1006,4 25 31 0,0
18.05.2019 07:00:00 7,6 6,7 6,6 8,8 10,9 10,4 2 1 5 3 ESE 1006,6 23 0 0,0
18.05.2019 06:00:00 7,3 6,9 7,1 8,8 11,0 10,4 2 1 7 4 W 1006,6 21 0 0,0
18.05.2019 05:00:00 6,8 6,3 6,3 8,7 11,2 10,4 4 2 7 4 E 1006,8 5 0 0,0
18.05.2019 04:00:00 7,4 6,8 6,4 8,6 11,5 10,4 4 2 11 6 ENE 1006,8 16 0 0,0
18.05.2019 03:00:00 7,7 6,8 4,6 8,8 11,7 10,4 6 3 10 5 ENE 1007,0 20 0 0,0

tt = Température de l'air
td = dewpoint
tt 5cm = Température de l'air 5cm
tt -5cm = Température de l'air -5cm
tt -20cm = Température de l'air -20cm
tt -100cm = Température de l'air -100cm
ff = Vitesse du vent
fx = gusts
dd = Direction du vent
ppp = reduced air pressure
vv = visibility
sd = Ensoleillement
rr = Quantités de précipitations

stations d'obs. à proximité